This is the latest recevied weather packets stored in our database for station/object KC3QLX. If no packets are shown the sender has not sent any weather packets the latest 10 day(s).
| Time | Temp. | Humidity | Pressure | Rain* | Wind** | Luminosity | Snow |
|---|---|---|---|---|---|---|---|
| 1777813848 | 6.67° C | 64% | 1014.4 hPa | 0 mm | - | 102 W/m² | - |
| 1777813545 | 6.67° C | 65% | 1014.3 hPa | 0 mm | - | 81 W/m² | - |
| 1777813243 | 6.67° C | 65% | 1014.5 hPa | 0 mm | - | 109 W/m² | - |
| 1777812940 | 6.11° C | 68% | 1014.3 hPa | 0 mm | - | 165 W/m² | - |
| 1777812638 | 6.11° C | 66% | 1014.4 hPa | 0 mm | - | 139 W/m² | - |
| 1777812334 | 6.11° C | 66% | 1014.4 hPa | 0 mm | - | 115 W/m² | - |
| 1777812033 | 6.11° C | 67% | 1014.5 hPa | 0 mm | - | 94 W/m² | - |
| 1777811731 | 6.11° C | 66% | 1014.2 hPa | 0 mm | - | 156 W/m² | - |
| 1777811427 | 6.11° C | 67% | 1014.5 hPa | 0 mm | - | 130 W/m² | - |
| 1777811123 | 6.11° C | 67% | 1014.6 hPa | 0 mm | - | 108 W/m² | - |
| 1777810821 | 6.11° C | 66% | 1014.3 hPa | 0 mm | - | 133 W/m² | - |
| 1777810518 | 6.11° C | 67% | 1014.4 hPa | 0 mm | - | 135 W/m² | - |
| 1777810214 | 6.11° C | 66% | 1014.3 hPa | 0 mm | - | 121 W/m² | - |
| 1777809910 | 6.11° C | 67% | 1014.3 hPa | 0 mm | - | 181 W/m² | - |
| 1777809609 | 6.11° C | 69% | 1014.2 hPa | 0 mm | - | 153 W/m² | - |
| 1777809306 | 5.56° C | 68% | 1014.1 hPa | 0 mm | - | 139 W/m² | - |
| 1777809003 | 5.56° C | 70% | 1014.3 hPa | 0 mm | - | 83 W/m² | - |
| 1777808701 | 5° C | 70% | 1014.2 hPa | 0 mm | - | 54 W/m² | - |
| 1777808397 | 5° C | 71% | 1014.1 hPa | 0 mm | - | 43 W/m² | - |
| 1777808095 | 5° C | 73% | 1014.2 hPa | 0 mm | - | 42 W/m² | - |
| 1777807793 | 4.44° C | 69% | 1014.2 hPa | 0 mm | - | 41 W/m² | - |
| 1777807491 | 4.44° C | 72% | 1013.9 hPa | 0 mm | - | 38 W/m² | - |
| 1777807186 | 4.44° C | 73% | 1013.9 hPa | 0 mm | - | 36 W/m² | - |
| 1777806884 | 3.89° C | 72% | 1013.9 hPa | 0 mm | - | 34 W/m² | - |
| 1777806580 | 3.89° C | 71% | 1013.7 hPa | 0 mm | - | 32 W/m² | - |
* Rain latest hour (hover to see other rain measurements)
** Current wind speed in m/s (hover to see current wind gust speed)